Flag for Canada Weather past 2 weeks in Yellowknife, Northwest Territories, Canada

Now
19 °F

Clear.


Feels Like: 7 °F
Forecast: 22 / 45 °F
Wind: 12 mph from East

Location: Yellowknife

Current Time: Apr 26, 2015 at 3:45:43 AM

Latest Report: Apr 26, 2015 at 3:00 AM


Visibility: 15 mi

Pressure: 30.28 "Hg

Humidity: 79%

Dew point: 14 °F

Location of YellowknifeLocation

Historic Weather in Yellowknife — Graph

°F

Yellowknife temperature yesterday

Maximum temperature yesterday: 32 °F (at 5:00 PM)
Minimum temperature yesterday: 12 °F (at 3:00 AM)
Average temperature yesterday: 22 °F

Past Weeks' High & Low Weather Summary

 TemperatureHumidityPressure
High48 °F (Apr 11, 12:00 PM)100% (Apr 15, 8:00 AM)30.41 "Hg (Apr 15, 8:00 AM)
Low3 °F (Apr 14, 7:00 AM)40% (Apr 11, 12:00 PM)29.03 "Hg (Apr 11, 2:00 PM)
Average28 °F67%29.95 "Hg
* Reported Apr 11 3:00 AM — Apr 26 3:00 AM, Yellowknife, Weather by CustomWeather, © 2015

Note: Actual official high and low records may vary slightly from our data, if they occured in-between our weather recording intervals... More about our weather records

Advertising

Yellowknife weather history for previous 24 hours

 ConditionsComfort  
Time TempWeatherWind HumidityBarometerVisibility
3:00 AM
Sun, Apr 26
19 °FClear.12 mph79%30.28 "Hg15 mi
2:00 AM21 °FClear.13 mph74%30.29 "Hg15 mi
1:00 AM23 °FPassing clouds.10 mph80%30.29 "Hg15 mi
12:00 AM25 °FPassing clouds.12 mph74%30.29 "Hg15 mi
11:00 PM
Sat, Apr 25
27 °FPassing clouds.12 mph74%30.29 "Hg15 mi
10:00 PM27 °FPassing clouds.6 mph80%30.29 "Hg15 mi
9:00 PM28 °FPassing clouds.5 mph69%30.29 "Hg15 mi
8:00 PM30 °FPassing clouds.6 mph64%30.29 "Hg15 mi
7:00 PM32 °FPassing clouds.8 mph64%30.30 "Hg15 mi
6:00 PM32 °FScattered clouds.7 mph60%30.31 "Hg15 mi
5:00 PM32 °FPartly sunny.7 mph60%30.32 "Hg15 mi
4:00 PM30 °FPartly sunny.6 mph64%30.33 "Hg15 mi
3:00 PM28 °FOvercast.8 mph69%30.34 "Hg15 mi
2:00 PM27 °FMostly cloudy.6 mph69%30.35 "Hg15 mi
1:00 PM25 °FMostly cloudy.7 mph74%30.36 "Hg15 mi
12:00 PM23 °FMostly cloudy.6 mph80%30.36 "Hg15 mi
11:00 AM21 °FSnow flurries. More clouds than sun.6 mph80%30.37 "Hg15 mi
10:00 AM19 °FScattered showers. Mostly cloudy.7 mph86%30.37 "Hg15 mi
9:00 AM19 °FPartly sunny.9 mph79%30.37 "Hg15 mi
8:00 AM16 °FPartly sunny.12 mph79%30.37 "Hg15 mi
7:00 AM14 °FPartly sunny.12 mph79%30.37 "Hg15 mi
6:00 AM14 °FPassing clouds.7 mph73%30.37 "Hg15 mi
5:00 AM12 °FPassing clouds.10 mph79%30.38 "Hg15 mi
4:00 AM12 °FPassing clouds.10 mph73%30.37 "Hg15 mi
3:00 AM12 °FPassing clouds.10 mph79%30.38 "Hg15 mi
Weather by CustomWeather, © 2015

See weather overviewHow to use our weather pages